When you browse on this site, cookies collect data to enhance your experience and personalize the content and advertising you see.
Visit our Privacy Policy to learn more. By continuing to use the site, you agree to this use of cookies and data.
  • Em Portugal
  • Lista de países
  • Para 7 dias
  • Temperatura da água
  • Mapas de satélite
  • Mapa do tempo
  • Widgets de tempo
  • user-avatar
    Iniciar Sessão

    Previsão horária em Kramatorsk

    Hoje, 27 Maio, Segunda-feira

    Tempo Temperatura Precipitação Vento Pressão Humidade
    00:00 +16°C° 0.1 mm 3 m/s 751 mmHg 93%
    01:00 +16°C° 0 mm 3 m/s 751 mmHg 93%
    02:00 +16°C° 0 mm 3 m/s 751 mmHg 93%
    03:00 +15°C° 0 mm 2 m/s 751 mmHg 93%
    04:00 +16°C° 0 mm 2 m/s 752 mmHg 92%
    05:00 +16°C° 0 mm 2 m/s 752 mmHg 91%
    06:00 +16°C° 0 mm 2 m/s 753 mmHg 91%
    07:00 +18°C° 0 mm 3 m/s 753 mmHg 84%
    08:00 +20°C° 0 mm 3 m/s 754 mmHg 76%
    09:00 +21°C° 0 mm 3 m/s 754 mmHg 68%
    10:00 +22°C° 0 mm 4 m/s 754 mmHg 63%
    11:00 +23°C° 0 mm 4 m/s 754 mmHg 59%
    12:00 +25°C° 0 mm 5 m/s 754 mmHg 54%
    13:00 +25°C° 0 mm 5 m/s 755 mmHg 53%
    14:00 +25°C° 0 mm 5 m/s 755 mmHg 52%
    15:00 +26°C° 0 mm 4 m/s 755 mmHg 51%
    16:00 +25°C° 0 mm 4 m/s 755 mmHg 54%
    17:00 +25°C° 0 mm 3 m/s 755 mmHg 57%
    18:00 +25°C° 0 mm 3 m/s 755 mmHg 60%
    19:00 +23°C° 0 mm 2 m/s 755 mmHg 65%
    20:00 +21°C° 0 mm 1 m/s 755 mmHg 70%
    21:00 +19°C° 0 mm 1 m/s 756 mmHg 75%
    22:00 +17°C° 0 mm 0 m/s 756 mmHg 77%
    23:00 +17°C° 0 mm 0 m/s 756 mmHg 79%

    Amanhã, 28 Maio, Terça-feira

    Tempo Temperatura Precipitação Vento Pressão Humidade
    00:00 +16°C° 0 mm 0 m/s 757 mmHg 81%
    01:00 +16°C° 0 mm 0 m/s 757 mmHg 82%
    02:00 +16°C° 0 mm 0 m/s 757 mmHg 82%
    03:00 +16°C° 0 mm 1 m/s 757 mmHg 82%
    04:00 +18°C° 0 mm 1 m/s 757 mmHg 82%
    05:00 +18°C° 0 mm 1 m/s 757 mmHg 81%
    06:00 +19°C° 0 mm 1 m/s 757 mmHg 81%
    07:00 +21°C° 0 mm 1 m/s 757 mmHg 74%
    08:00 +22°C° 0 mm 1 m/s 758 mmHg 68%
    09:00 +24°C° 0 mm 1 m/s 758 mmHg 62%
    10:00 +25°C° 0 mm 1 m/s 758 mmHg 57%
    11:00 +27°C° 0 mm 1 m/s 758 mmHg 53%
    12:00 +26°C° 0 mm 0 m/s 758 mmHg 49%
    13:00 +28°C° 0 mm 1 m/s 758 mmHg 46%
    14:00 +28°C° 0 mm 1 m/s 757 mmHg 44%
    15:00 +29°C° 0 mm 1 m/s 757 mmHg 42%
    16:00 +28°C° 0 mm 1 m/s 757 mmHg 45%
    17:00 +28°C° 0 mm 1 m/s 757 mmHg 48%
    18:00 +28°C° 0 mm 2 m/s 757 mmHg 51%
    19:00 +26°C° 0 mm 2 m/s 757 mmHg 54%
    20:00 +24°C° 0 mm 2 m/s 757 mmHg 58%
    21:00 +21°C° 0 mm 2 m/s 757 mmHg 62%
    22:00 +21°C° 0 mm 2 m/s 757 mmHg 65%
    23:00 +20°C° 0 mm 2 m/s 757 mmHg 69%

    Depois de amanhã, 29 Maio, Quarta-feira

    Tempo Temperatura Precipitação Vento Pressão Humidade
    00:00 +19°C° 0 mm 2 m/s 757 mmHg 72%
    01:00 +19°C° 0 mm 2 m/s 757 mmHg 74%
    02:00 +19°C° 0 mm 1 m/s 757 mmHg 76%
    03:00 +18°C° 0 mm 1 m/s 757 mmHg 78%
    04:00 +19°C° 0 mm 1 m/s 757 mmHg 79%
    05:00 +19°C° 0 mm 1 m/s 757 mmHg 79%
    06:00 +19°C° 0 mm 2 m/s 757 mmHg 79%
    07:00 +21°C° 0 mm 2 m/s 757 mmHg 73%
    08:00 +22°C° 0 mm 3 m/s 757 mmHg 67%
    09:00 +25°C° 0 mm 4 m/s 758 mmHg 62%
    10:00 +26°C° 0 mm 4 m/s 757 mmHg 59%
    11:00 +27°C° 0 mm 5 m/s 757 mmHg 57%
    12:00 +28°C° 0 mm 5 m/s 757 mmHg 55%
    13:00 +28°C° 0 mm 5 m/s 757 mmHg 54%
    14:00 +29°C° 0 mm 5 m/s 757 mmHg 53%
    15:00 +29°C° 0 mm 5 m/s 757 mmHg 53%
    16:00 +29°C° 0 mm 4 m/s 757 mmHg 56%
    17:00 +29°C° 0 mm 4 m/s 756 mmHg 58%
    18:00 +28°C° 0 mm 3 m/s 756 mmHg 61%
    19:00 +27°C° 0 mm 3 m/s 756 mmHg 66%
    20:00 +25°C° 0 mm 3 m/s 756 mmHg 70%
    21:00 +22°C° 0 mm 3 m/s 757 mmHg 74%
    22:00 +21°C° 0 mm 3 m/s 757 mmHg 76%
    23:00 +21°C° 0 mm 3 m/s 757 mmHg 77%

    30 Maio, Quinta-feira

    Tempo Temperatura Precipitação Vento Pressão Humidade
    00:00 +20°C° 0 mm 3 m/s 757 mmHg 79%
    01:00 +19°C° 0 mm 2 m/s 757 mmHg 79%
    02:00 +19°C° 0 mm 2 m/s 757 mmHg 79%
    03:00 +18°C° 0 mm 2 m/s 757 mmHg 79%
    04:00 +19°C° 0 mm 2 m/s 757 mmHg 79%
    05:00 +19°C° 0 mm 2 m/s 757 mmHg 78%
    06:00 +19°C° 0 mm 2 m/s 757 mmHg 78%
    07:00 +21°C° 0 mm 3 m/s 757 mmHg 72%
    08:00 +23°C° 0 mm 4 m/s 757 mmHg 67%
    09:00 +26°C° 0 mm 5 m/s 757 mmHg 61%
    10:00 +27°C° 0 mm 5 m/s 757 mmHg 56%
    11:00 +28°C° 0 mm 5 m/s 757 mmHg 52%
    12:00 +30°C° 0 mm 5 m/s 756 mmHg 47%
    13:00 +30°C° 0 mm 5 m/s 756 mmHg 47%
    14:00 +30°C° 0 mm 4 m/s 756 mmHg 46%
    15:00 +32°C° 0 mm 4 m/s 756 mmHg 46%
    16:00 +30°C° 0 mm 4 m/s 756 mmHg 49%
    17:00 +30°C° 0 mm 3 m/s 756 mmHg 53%
    18:00 +30°C° 0 mm 2 m/s 756 mmHg 57%
    19:00 +28°C° 0 mm 2 m/s 756 mmHg 60%
    20:00 +26°C° 0 mm 2 m/s 756 mmHg 64%
    21:00 +24°C° 0 mm 2 m/s 756 mmHg 68%
    22:00 +23°C° 0 mm 2 m/s 756 mmHg 70%
    23:00 +21°C° 0 mm 2 m/s 756 mmHg 72%

    31 Maio, Sexta-feira

    Tempo Temperatura Precipitação Vento Pressão Humidade
    00:00 +21°C° 0 mm 2 m/s 756 mmHg 74%
    01:00 +20°C° 0 mm 2 m/s 756 mmHg 76%
    02:00 +20°C° 0 mm 2 m/s 756 mmHg 77%
    03:00 +19°C° 0 mm 2 m/s 756 mmHg 79%
    04:00 +20°C° 0 mm 2 m/s 756 mmHg 79%
    05:00 +20°C° 0 mm 2 m/s 756 mmHg 79%
    06:00 +20°C° 0 mm 2 m/s 756 mmHg 78%
    07:00 +22°C° 0 mm 3 m/s 756 mmHg 73%
    08:00 +25°C° 0 mm 3 m/s 756 mmHg 67%
    09:00 +26°C° 0 mm 4 m/s 756 mmHg 62%
    10:00 +28°C° 0 mm 4 m/s 756 mmHg 56%
    11:00 +30°C° 0 mm 4 m/s 755 mmHg 51%
    12:00 +32°C° 0 mm 4 m/s 755 mmHg 45%
    13:00 +32°C° 0 mm 4 m/s 755 mmHg 45%
    14:00 +33°C° 0 mm 4 m/s 755 mmHg 45%
    15:00 +33°C° 0 mm 4 m/s 754 mmHg 44%
    16:00 +33°C° 0 mm 4 m/s 754 mmHg 48%
    17:00 +31°C° 0 mm 3 m/s 754 mmHg 52%
    18:00 +31°C° 0 mm 3 m/s 754 mmHg 56%
    19:00 +29°C° 0 mm 3 m/s 754 mmHg 59%
    20:00 +27°C° 0 mm 3 m/s 754 mmHg 62%
    21:00 +25°C° 0 mm 3 m/s 754 mmHg 64%
    22:00 +24°C° 0 mm 3 m/s 754 mmHg 65%
    23:00 +23°C° 0 mm 2 m/s 754 mmHg 66%

    1 Junho, Sábado

    Tempo Temperatura Precipitação Vento Pressão Humidade
    00:00 +23°C° 0 mm 2 m/s 754 mmHg 67%
    01:00 +23°C° 0 mm 2 m/s 754 mmHg 68%
    02:00 +21°C° 0 mm 3 m/s 753 mmHg 70%
    03:00 +21°C° 0 mm 3 m/s 753 mmHg 71%
    04:00 +21°C° 0 mm 3 m/s 753 mmHg 73%
    05:00 +21°C° 0 mm 3 m/s 753 mmHg 74%
    06:00 +21°C° 0 mm 3 m/s 753 mmHg 76%
    07:00 +24°C° 0 mm 3 m/s 753 mmHg 70%
    08:00 +26°C° 0 mm 4 m/s 753 mmHg 65%
    09:00 +28°C° 0 mm 4 m/s 753 mmHg 59%
    10:00 +29°C° 0 mm 4 m/s 753 mmHg 53%
    11:00 +32°C° 0 mm 4 m/s 753 mmHg 46%
    12:00 +34°C° 0 mm 5 m/s 753 mmHg 39%
    13:00 +34°C° 0 mm 5 m/s 752 mmHg 40%
    14:00 +34°C° 0 mm 5 m/s 752 mmHg 40%
    15:00 +34°C° 0 mm 5 m/s 752 mmHg 41%
    16:00 +33°C° 0 mm 4 m/s 752 mmHg 46%
    17:00 +32°C° 0 mm 4 m/s 752 mmHg 50%
    18:00 +30°C° 0 mm 3 m/s 752 mmHg 55%
    19:00 +29°C° 0 mm 3 m/s 752 mmHg 56%
    20:00 +28°C° 0 mm 3 m/s 752 mmHg 57%
    21:00 +27°C° 0 mm 3 m/s 752 mmHg 58%
    22:00 +26°C° 0 mm 3 m/s 752 mmHg 60%
    23:00 +25°C° 0 mm 3 m/s 752 mmHg 62%
    Mostrar mais